STARLINK-34936 (65898 NORAD) Tracking and Keplerian Element Data

This shows tracking and keplerian element data for the satellite.

Feedback or suggestion? Click here.




ElementValue
Catalog65898
NameSTARLINK-34936
Epoch Orbit1259
Epoch Day353.47080326
Epoch Year2025
RAAN23.8655
Inclination53.1615
Eccentricity0.0001415
Argument of Perigee85.4371
Mean Anonmoly274.6791
Mean Motion15.30193335
Decay Rate0.00019954
L11 65898U 25224S 25353.47080326 .00019954 00000+0 68416-3 0 9994
L22 65898 53.1615 23.8655 0001415 85.4371 274.6791 15.30193335 12593



Live tracking and technical data element details for STARLINK-34936 (NORAD 65898). STARLINK-34936 can be tracked NOW for your location showing map with azimuth and elevation plus other details from your city location.







IsCatalogInMostPopularTable: catalog: 65898, numindb: 4
Update: records affected: 1



GetName: 65898 STARLINK-34936

Hit Count: updated at: Sun, 08 Feb 2026 16:43:32 GMT